Regional Weather Roundup
Issued by NWS

Home | Current Version | Previous Version | Text Only | Print | Product List | Glossary On
Versions: 1 2 3 4 5 6 7 8 9 10 11 12 13 14 15 16 17 18 19 20 21 22 23 24 25 26 27 28 29 30 31 32 33 34 35 36 37 38 39 40 41 42 43 44 45 46 47 48 49 50
000
ASUS43 KLMK 111810
RWRKY
KENTUCKY REGIONAL WEATHER ROUNDUP
NATIONAL WEATHER SERVICE LOUISVILLE KY
200 PM EDT FRI JUL 11 2014

NOTE "FAIR" INDICATES FEW OR NO CLOUDS BELOW 12,000 FEET
WITH NO SIGNIFICANT WEATHER AND/OR OBSTRUCTIONS TO VISIBILITY.

KYZ001>023-026-027-061>063-070>075-111900-
WESTERN AND SOUTH CENTRAL KENTUCKY

CITY           SKY/WX    TMP DP  RH WIND       PRES   REMARKS
PADUCAH        SUNNY     89  65  44 W3        30.17F HX  91
HENDERSON      SUNNY     84  63  48 NW3       30.18S
OWENSBORO      MOSUNNY   87  62  42 VRB6      30.19F
HOPKINSVILLE   MOSUNNY   88  62  41 VRB6      30.18S
BOWLING GREEN  MOSUNNY   87  61  41 CALM      30.18F
GLASGOW        PTSUNNY   86  59  40 CALM      30.18F
$$

KYZ024-025-028>034-038-045-046-053-111900-
NORTH CENTRAL KENTUCKY

CITY           SKY/WX    TMP DP  RH WIND       PRES   REMARKS
LOUISVILLE/SDF MOSUNNY   88  57  34 W7        30.18F
LOUISVILLE/LOU MOSUNNY   85  58  39 NE6       30.19F
FORT KNOX      MOSUNNY   83  63  50 NW5       30.19S
$$

KYZ035>037-039>044-047>052-055>060-089>105-111900-
NORTHEAST KENTUCKY

CITY           SKY/WX    TMP DP  RH WIND       PRES   REMARKS
LEXINGTON      MOSUNNY   86  59  39 CALM      30.21S
COVINGTON      MOSUNNY   81  55  40 CALM      30.21F
FRANKFORT      PTSUNNY   84  60  44 MISG      30.19F
$$

KYZ054-064>069-076>088-106>120-111900-
SOUTHEAST KENTUCKY

CITY           SKY/WX    TMP DP  RH WIND       PRES   REMARKS
JACKSON        MOSUNNY   84  56  38 SE6       30.22F
LONDON         CLOUDY    84  55  36 S7        30.21F
SOMERSET       SUNNY     88  46  23 CALM      30.20F
MIDDLESBORO    SUNNY     85  60  42 CALM      30.20F
MONTICELLO     PTCLDY    88  57  34 CALM      30.21F
$$




USA.gov is the U.S. government's official web portal to all federal, state and local government web resources and services.